GSAT0208 (PRN E08)

Last updated on June 27, 2019, 3:44 a.m. UTC

1 41175U 15079B   19177.13860706  .00000087  00000-0  00000+0 0  9990
2 41175  54.9479 171.3176 0005680 297.6910  62.2594  1.70473628 21927
UTC
Height (km)
Latitude
Longitude
Inclination
Orbital Period
UTC large
Height (km)
Speed (km/s)
/
Latitude / Longitude
Inclination (degrees)
Orbital Period (minutes)
Azimuth
Elevation
Range (km)
Doppler Factor
iOS Compass Heading
iOS Angle

Next 30 passes for location: Hong Kong

Rise time Rise Azimuth (degrees) Set time Set Azimuth (degrees) Duration Max altitude (degrees)

No matching passes for this satellites